星链-32011 (STARLINK-32011 )

导读

STARLINK-32011是美国SpaceX公司星链星座的一员,于2024年6月8日发射升空。该卫星运行在近地轨道,依托星链低轨星座布局,配合相控阵天线、OFDM调制、星间激光链路等技术,为全球尤其是偏远地区提供低时延、高速宽带互联网服务,支持视频通话、在线互动等应用,是星链全球互联网组网的重要组成部分。

Basic Information
目录编号:
60030
目录名称:
STARLINK-32011
国际标识:
2024-111Q
轨道中心:
EARTH
卫星名称:
星链-32011
卫星全名:
星链-32011 (STARLINK-32011 )
卫星状态:
在轨 (已飞行740 天)
发射日期:
2024-06-08 UTC
国别 :
美国 (US)
星等 :
--
Orbit Information
数据来源 国际轨道数据 AOE轨道数据
星历时间 2026-06-17T23:28:25+0800
11小时前
查看轨道信息
2026-06-13T02:00:00+0800
5天前
查看轨道信息
半长轴 6840.981km 6840.843km
偏心率 0.0001741 0.0000864
轨道倾角 53.162° 53.160°
近地点辐角 122.356° 83.022°
升交点赤经 329.467° 352.351°
平近点角 237.761° 224.468°
近地点 461.652km 462.114km
远地点 464.036km 463.298km
周期 93.851分钟 93.848分钟
每日圈数 15.343528 15.343993
Detailed Information
固有亮度:
5
最大亮度:
1.5
卫星平台:
Starlink v2.0 mini
覆盖范围:
全球
运营商:
太空探索技术公司
运营商所在国:
美国
制造商(研发单位):
太空探索技术公司
制造商所在国:
美国
使用方式:
暂无
Satellite Introduction
星链(Starlink)计划是由太空探索技术公司(SpaceX)提出的一个巨型低轨卫星互联网星座项目,计划在2019年至2024年间在太空搭建由约1.2万颗卫星组成的“星链”网络,其中1584颗将部署在地球上空550千米处的近地轨道,并从2020年开始工作。该卫星仍在工作。
2D Orbit Map
3D Orbit Map
Orbit Altitude Analysis Chart
Orbit Inclination Analysis Chart
Orbit Comprehensive Analysis Chart
View Comprehensive Chart